• en France
  • Liste des pays
  • À 7 jours
  • Température de l'eau
  • Carte satellitaire
  • Carte météo
  • Widgets météo
  • user-avatar
    Se connecter

    Météo par heure à Belfast

    Ce jour, 17 Juillet, Mardi

    Heure Température Précipitation Vent Pression Humidité
    00:00 +12°C° 0 mm 3 m/s 758 mmHg 91%
    01:00 +11°C° 0 mm 3 m/s 758 mmHg 92%
    02:00 +11°C° 0 mm 3 m/s 758 mmHg 93%
    03:00 +10°C° 0 mm 3 m/s 758 mmHg 95%
    04:00 +11°C° 0 mm 3 m/s 758 mmHg 94%
    05:00 +11°C° 0 mm 3 m/s 758 mmHg 93%
    06:00 +11°C° 0 mm 3 m/s 758 mmHg 92%
    07:00 +12°C° 0 mm 3 m/s 758 mmHg 86%
    08:00 +13°C° 0 mm 3 m/s 758 mmHg 80%
    09:00 +16°C° 0 mm 3 m/s 758 mmHg 74%
    10:00 +16°C° 0 mm 3 m/s 758 mmHg 71%
    11:00 +17°C° 0 mm 3 m/s 758 mmHg 68%
    12:00 +17°C° 0 mm 3 m/s 758 mmHg 65%
    13:00 +17°C° 0 mm 3 m/s 758 mmHg 66%
    14:00 +18°C° 0 mm 3 m/s 758 mmHg 68%
    15:00 +18°C° 0 mm 3 m/s 758 mmHg 69%
    16:00 +17°C° 0,1 mm 2 m/s 758 mmHg 73%
    17:00 +17°C° 0,1 mm 2 m/s 758 mmHg 76%
    18:00 +17°C° 0,1 mm 2 m/s 759 mmHg 79%
    19:00 +16°C° 0,1 mm 2 m/s 759 mmHg 83%
    20:00 +15°C° 0,1 mm 2 m/s 759 mmHg 86%
    21:00 +14°C° 0,1 mm 1 m/s 759 mmHg 89%
    22:00 +14°C° 0 mm 1 m/s 759 mmHg 90%
    23:00 +13°C° 0 mm 1 m/s 759 mmHg 91%

    Demain, 18 Juillet, Mercredi

    Heure Température Précipitation Vent Pression Humidité
    00:00 +13°C° 0 mm 1 m/s 760 mmHg 92%
    01:00 +12°C° 0 mm 1 m/s 760 mmHg 93%
    02:00 +12°C° 0 mm 1 m/s 760 mmHg 94%
    03:00 +12°C° 0 mm 1 m/s 759 mmHg 94%
    04:00 +12°C° 0 mm 2 m/s 760 mmHg 94%
    05:00 +12°C° 0 mm 2 m/s 760 mmHg 94%
    06:00 +13°C° 0 mm 2 m/s 760 mmHg 94%
    07:00 +14°C° 0 mm 2 m/s 760 mmHg 88%
    08:00 +15°C° 0 mm 2 m/s 760 mmHg 83%
    09:00 +17°C° 0 mm 2 m/s 761 mmHg 78%
    10:00 +17°C° 0 mm 2 m/s 761 mmHg 75%
    11:00 +18°C° 0 mm 2 m/s 761 mmHg 72%
    12:00 +18°C° 0 mm 2 m/s 761 mmHg 68%
    13:00 +18°C° 0,1 mm 2 m/s 761 mmHg 69%
    14:00 +18°C° 0,1 mm 2 m/s 761 mmHg 69%
    15:00 +18°C° 0,1 mm 2 m/s 761 mmHg 70%
    16:00 +18°C° 0,1 mm 2 m/s 761 mmHg 71%
    17:00 +17°C° 0,1 mm 2 m/s 762 mmHg 73%
    18:00 +17°C° 0,1 mm 2 m/s 762 mmHg 75%
    19:00 +16°C° 0 mm 2 m/s 762 mmHg 79%
    20:00 +15°C° 0 mm 2 m/s 763 mmHg 82%
    21:00 +13°C° 0 mm 2 m/s 763 mmHg 86%
    22:00 +13°C° 0 mm 2 m/s 763 mmHg 87%
    23:00 +12°C° 0 mm 2 m/s 763 mmHg 88%

    Après-demain, 19 Juillet, Jeudi

    Heure Température Précipitation Vent Pression Humidité
    00:00 +12°C° 0 mm 2 m/s 763 mmHg 89%
    01:00 +12°C° 0 mm 2 m/s 763 mmHg 90%
    02:00 +10°C° 0 mm 2 m/s 763 mmHg 90%
    03:00 +10°C° 0 mm 2 m/s 763 mmHg 91%
    04:00 +10°C° 0 mm 2 m/s 763 mmHg 90%
    05:00 +12°C° 0 mm 1 m/s 763 mmHg 89%
    06:00 +13°C° 0 mm 1 m/s 763 mmHg 88%
    07:00 +14°C° 0 mm 1 m/s 763 mmHg 82%
    08:00 +16°C° 0 mm 1 m/s 763 mmHg 77%
    09:00 +18°C° 0 mm 1 m/s 763 mmHg 71%
    10:00 +19°C° 0 mm 1 m/s 763 mmHg 68%
    11:00 +19°C° 0 mm 1 m/s 763 mmHg 66%
    12:00 +20°C° 0 mm 1 m/s 763 mmHg 63%
    13:00 +20°C° 0 mm 1 m/s 763 mmHg 63%
    14:00 +20°C° 0 mm 1 m/s 763 mmHg 63%
    15:00 +19°C° 0 mm 2 m/s 763 mmHg 63%
    16:00 +19°C° 0 mm 2 m/s 763 mmHg 65%
    17:00 +19°C° 0 mm 2 m/s 763 mmHg 66%
    18:00 +19°C° 0 mm 2 m/s 763 mmHg 68%
    19:00 +18°C° 0 mm 2 m/s 763 mmHg 73%
    20:00 +17°C° 0 mm 2 m/s 763 mmHg 77%
    21:00 +15°C° 0 mm 2 m/s 763 mmHg 82%
    22:00 +15°C° 0 mm 2 m/s 763 mmHg 84%
    23:00 +14°C° 0 mm 2 m/s 763 mmHg 86%

    20 Juillet, Vendredi

    Heure Température Précipitation Vent Pression Humidité
    00:00 +13°C° 0 mm 2 m/s 763 mmHg 88%
    01:00 +13°C° 0 mm 2 m/s 763 mmHg 90%
    02:00 +11°C° 0 mm 3 m/s 763 mmHg 91%
    03:00 +11°C° 0 mm 3 m/s 762 mmHg 93%
    04:00 +11°C° 0,1 mm 3 m/s 762 mmHg 92%
    05:00 +11°C° 0,1 mm 3 m/s 762 mmHg 92%
    06:00 +12°C° 0,1 mm 3 m/s 762 mmHg 91%
    07:00 +13°C° 0 mm 3 m/s 762 mmHg 90%
    08:00 +14°C° 0 mm 3 m/s 762 mmHg 88%
    09:00 +15°C° 0 mm 4 m/s 762 mmHg 86%
    10:00 +15°C° 0,1 mm 4 m/s 762 mmHg 86%
    11:00 +17°C° 0,1 mm 4 m/s 762 mmHg 86%
    12:00 +17°C° 0,1 mm 4 m/s 762 mmHg 85%
    13:00 +17°C° 0 mm 4 m/s 762 mmHg 85%
    14:00 +18°C° 0 mm 4 m/s 762 mmHg 86%
    15:00 +18°C° 0 mm 4 m/s 762 mmHg 86%
    16:00 +18°C° 0 mm 4 m/s 762 mmHg 86%
    17:00 +18°C° 0 mm 4 m/s 762 mmHg 86%
    18:00 +18°C° 0 mm 4 m/s 762 mmHg 86%
    19:00 +17°C° 0 mm 4 m/s 762 mmHg 89%
    20:00 +16°C° 0 mm 3 m/s 762 mmHg 92%
    21:00 +14°C° 0 mm 3 m/s 762 mmHg 95%
    22:00 +14°C° 0 mm 3 m/s 762 mmHg 95%
    23:00 +14°C° 0 mm 3 m/s 762 mmHg 95%

    21 Juillet, Samedi

    Heure Température Précipitation Vent Pression Humidité
    00:00 +14°C° 0 mm 3 m/s 762 mmHg 96%
    01:00 +14°C° 0 mm 3 m/s 762 mmHg 96%
    02:00 +14°C° 0 mm 3 m/s 761 mmHg 96%
    03:00 +14°C° 0 mm 3 m/s 761 mmHg 96%
    04:00 +14°C° 0 mm 3 m/s 761 mmHg 95%
    05:00 +14°C° 0 mm 4 m/s 761 mmHg 94%
    06:00 +14°C° 0 mm 4 m/s 761 mmHg 93%
    07:00 +14°C° 0 mm 4 m/s 761 mmHg 91%
    08:00 +14°C° 0 mm 5 m/s 761 mmHg 90%
    09:00 +14°C° 0 mm 5 m/s 762 mmHg 88%
    10:00 +15°C° 0 mm 5 m/s 762 mmHg 87%
    11:00 +15°C° 0 mm 4 m/s 762 mmHg 86%
    12:00 +17°C° 0 mm 4 m/s 762 mmHg 85%
    13:00 +17°C° 0 mm 4 m/s 762 mmHg 85%
    14:00 +17°C° 0 mm 4 m/s 762 mmHg 84%
    15:00 +18°C° 0 mm 4 m/s 762 mmHg 84%
    16:00 +18°C° 0 mm 4 m/s 762 mmHg 85%
    17:00 +18°C° 0 mm 4 m/s 762 mmHg 85%
    18:00 +18°C° 0 mm 4 m/s 762 mmHg 86%
    19:00 +17°C° 0 mm 4 m/s 762 mmHg 88%
    20:00 +17°C° 0 mm 4 m/s 762 mmHg 89%
    21:00 +17°C° 0 mm 3 m/s 762 mmHg 91%
    22:00 +17°C° 0 mm 4 m/s 762 mmHg 92%
    23:00 +17°C° 0 mm 4 m/s 762 mmHg 93%

    22 Juillet, Dimanche

    Heure Température Précipitation Vent Pression Humidité
    00:00 +17°C° 0 mm 4 m/s 762 mmHg 93%
    01:00 +15°C° 0 mm 4 m/s 762 mmHg 94%
    02:00 +15°C° 0 mm 4 m/s 762 mmHg 95%
    03:00 +15°C° 0 mm 4 m/s 762 mmHg 96%
    04:00 +15°C° 0 mm 4 m/s 762 mmHg 96%
    05:00 +16°C° 0 mm 3 m/s 762 mmHg 96%
    06:00 +17°C° 0 mm 3 m/s 762 mmHg 95%
    07:00 +18°C° 0 mm 3 m/s 762 mmHg 93%
    08:00 +18°C° 0 mm 3 m/s 762 mmHg 90%
    09:00 +19°C° 0 mm 2 m/s 762 mmHg 88%
    10:00 +20°C° 0 mm 2 m/s 762 mmHg 86%
    11:00 +20°C° 0 mm 3 m/s 762 mmHg 85%
    12:00 +21°C° 0 mm 3 m/s 762 mmHg 83%
    13:00 +21°C° 0 mm 3 m/s 762 mmHg 83%
    14:00 +21°C° 0 mm 3 m/s 762 mmHg 82%
    15:00 +22°C° 0 mm 3 m/s 762 mmHg 82%
    16:00 +21°C° 0,1 mm 4 m/s 761 mmHg 84%
    17:00 +21°C° 0,1 mm 4 m/s 761 mmHg 87%
    18:00 +20°C° 0,1 mm 4 m/s 761 mmHg 89%
    19:00 +19°C° 0,1 mm 4 m/s 761 mmHg 90%
    20:00 +19°C° 0,1 mm 4 m/s 761 mmHg 91%
    21:00 +18°C° 0,1 mm 4 m/s 761 mmHg 92%
    22:00 +17°C° 0 mm 4 m/s 761 mmHg 93%
    23:00 +15°C° 0 mm 4 m/s 761 mmHg 93%
    Voir plus